Location: Bremen
(53.0793°N, 8.8017°E)
Time: 22:30:30
(UTC+01:00)

Transit 2A - Pass Details

Date: 01 December 2022
Orbit: 593 x 963 km, 66.7° (Epoch: 05 February)

Event Time Altitude Azimuth Distance (km) Brightness Sun altitude
Rises 18:44:33 0° 312° (NW) 3,207 9.8 -21.9°
Reaches altitude 10° 18:47:22 10° 296° (WNW) 2,346 9.3 -22.3°
Maximum altitude 18:51:19 21° 249° (WSW) 1,787 8.7 -22.9°
Drops below altitude 10° 18:55:30 10° 203° (SSW) 2,515 9.0 -23.5°
Sets 18:58:39 0° 188° (S) 3,508 9.6 -24.0°
